Location: Unspecified
(52.4292°N, 19.3359°E)
Time: 20:17:59
(UTC+02:00)

Tiros 1 - Pass Details

Date: 22 May 2024
Orbit: 624 x 657 km, 48.4° (Epoch: 15 June)

Event Time Altitude Azimuth Distance (km) Brightness Sun altitude
Rises 17:15:09 0° 276° (W) 2,984 11.8 28.9°
Reaches altitude 10° 17:17:41 10° 267° (W) 2,069 11.5 28.5°
Maximum altitude 17:21:56 33° 204° (SSW) 1,104 9.0 27.9°
Drops below altitude 10° 17:26:10 10° 141° (SE) 2,052 9.5 27.2°
Sets 17:28:39 0° 131° (SE) 2,956 10.1 26.9°
